Miscellaneous Local Product
Issued by NWS Hastings, NE

Home | Current Version | Previous Version | Text Only | Print | Product List | Glossary Off
Versions: 1 2 3 4 5 6 7 8 9 10 11 12 13 14 15 16 17 18 19 20 21 22 23 24 25 26 27 28 29 30 31 32 33 34 35 36 37 38 39 40 41 42 43 44 45 46 47 48 49 50

000
AXUS43 KGID 231202
MISGRI

GID CWA HOURLY WEATHER ROUNDUP
NATIONAL WEATHER SERVICE HASTINGS NE
700 AM CDT SAT JUL 23 2016

NOTE: "FAIR" INDICATES FEW OR NO CLOUDS BELOW 12,000 FEET WITH NO
SIGNIFICANT WEATHER AND/OR OBSTRUCTIONS TO VISIBILITY.

...SOUTH CENTRAL NEBRASKA...

CITY           SKY/WX    TMP DP  RH WIND       PRES   REMARKS
GRAND ISLAND   CLOUDY    72  69  90 SE7       29.85S
HASTINGS       CLOUDY    73  68  84 S12G22    29.87F
KEARNEY        CLOUDY    77  63  61 S23G29    29.82F
ORD            CLOUDY    71  65  81 S8        29.82F
YORK           CLOUDY    73  72  94 SE6       29.87F
AURORA         CLOUDY    73  71  92 SE8       29.86S
LEXINGTON      CLOUDY    71  67  85 CALM      29.85F
HOLDREGE       LGT RAIN  76  62  60 S16G22    29.86F
HEBRON         CLOUDY    76  69  81 CALM      29.91F

...NEBRASKA PANHANDLE...

CITY           SKY/WX    TMP DP  RH WIND       PRES   REMARKS
CHADRON        CLEAR     64  60  87 SW7       29.87S
ALLIANCE       CLOUDY    63  61  93 CALM      29.93S
SCOTTSBLUFF    CLOUDY    62  58  86 N5        29.95S
SIDNEY         CLOUDY    70  62  76 SW9       30.01R

...WESTERN AND NORTH CENTRAL NEBRASKA...

CITY           SKY/WX    TMP DP  RH WIND       PRES   REMARKS
VALENTINE      PTCLDY    69  64  84 S7        29.82F
AINSWORTH      CLOUDY    68  66  92 NW6       29.83F
ONEILL         CLOUDY    72  67  87 CALM      29.81F
BROKEN BOW     PTCLDY    68  66  93 SE5       29.85S
IMPERIAL       CLOUDY    72  63  73 S13       29.93R
NORTH PLATTE   PTCLDY    68  66  93 S5        29.87S
MCCOOK         CLOUDY    77  63  61 S18G25    29.86F

...EASTERN NEBRASKA...

CITY           SKY/WX    TMP DP  RH WIND       PRES   REMARKS
NORFOLK        CLOUDY    73  69  87 S9        29.84R
SO SIOUX CITY  LGT RAIN  79  75  87 SE12      29.79F
TEKAMAH        CLOUDY    79  73  82 S12       29.84F
COLUMBUS       MOCLDY    73  66  78 SE5       29.85F
ALBION         MOCLDY    72  69  89 SE6       29.82F
OMAHA EPPLEY   CLOUDY    83  70  64 S8        29.86F
OFFUTT AFB     CLOUDY    81  69  68 S7        29.87F
MILLARD        CLOUDY    83  70  66 S5        29.87F
LINCOLN        MOCLDY    80  71  74 S12       29.88S
NEBRASKA CITY  TSTM      78  70  77 SW10      29.91S
BEATRICE       CLOUDY    78  69  74 SW6       29.91S
FALLS CITY     LGT RAIN  81  72  74 S7        29.92R

...NORTHERN KANSAS...

CITY           SKY/WX    TMP DP  RH WIND       PRES   REMARKS
GOODLAND       MOCLDY    68  65  90 E8        29.97R
HILL CITY      LGT RAIN  73  68  84 E16G24    29.90F
NORTON         SUNNY     73  63  68 SE17      29.89F
SMITH CENTER   CLEAR     73  68  83 E8        29.94S
BELOIT         CLEAR     73  70  88 SE9       29.91F
HAYS           CLOUDY    75  63  64 NE3       29.96S
RUSSELL        MOCLDY    76  62  62 S8        29.94S
CONCORDIA      CLOUDY    75  68  78 S10       29.94R
SALINA         CLOUDY    82  66  58 S5        29.95F
TOPEKA         PTCLDY    81  71  71 CALM      29.94R



USA.gov is the U.S. government's official web portal to all federal, state and local government web resources and services.